Terminal Aerodrome Forecast
Issued by NWS Knoxville/Tri Cities, TN

Home | Current Version | Previous Version | Text Only | Print | Product List | Glossary On
Versions: 1 2 3 4 5 6 7 8 9 10 11 12 13 14 15
000
FTUS44 KMRX 062320
TAFCHA
TAF
KCHA 062320Z 0700/0724 33004KT P6SM FEW070
     FM071500 25010G20KT P6SM FEW080=

USA.gov is the U.S. government's official web portal to all federal, state and local government web resources and services.